Home   Weather   Prešov   Past weeks

Flag for Slovakia Past Weather in Prešov, Slovakia — Yesterday and Last 2 Weeks

Now
32 °F

Sunny.


Feels Like: 32 °F
Forecast: 28 / 41 °F
Wind: 1 mph from North

Location: Kosice - Barca

Current Time: Feb 25, 2017 at 8:06:55 am

Latest Report: Feb 25, 2017 at 7:30 am


Visibility: 10 mi

Pressure: 30.07 "Hg

Humidity: 75%

Dew Point: 25 °F

Location of PrešovLocation

Past Weather in Prešov — Graph

°F

Prešov Temperature Yesterday

Maximum temperature yesterday: 54 °F (at 12:30 pm)
Minimum temperature yesterday: 37 °F (at 3:00 am)
Average temperature yesterday: 44 °F

High & Low Weather Summary for the Past Weeks

 TemperatureHumidityPressure
High55 °F (Feb 23, 1:30 pm)100% (Feb 12, 2:30 am)30.63 "Hg (Feb 12, 2:30 am)
Low21 °F (Feb 11, 5:30 am)32% (Feb 24, 5:30 pm)29.50 "Hg (Feb 24, 2:30 am)
Average32 °F89%30.20 "Hg
* Reported Feb 10 6:00 am — Feb 25 6:30 am, Prešov, Weather by CustomWeather, © 2017

Note: Actual official high and low records may vary slightly from our data, if they occured in-between our weather recording intervals... More about our weather records

Advertising

Prešov Weather History for the Previous 24 Hours

Scroll right to see more
 ConditionsComfort  
Time TempWeatherWind HumidityBarometerVisibility
6:30 am
Sat, Feb 25
32 °FPassing clouds.3 mph60%30.04 "HgN/A
6:00 am30 °FClear.5 mph64%30.04 "Hg10 mi
5:30 am32 °FClear.9 mph60%30.01 "Hg10 mi
5:00 am32 °FClear.7 mph64%30.01 "Hg10 mi
4:30 am34 °FPassing clouds.5 mph60%29.98 "HgN/A
4:00 am36 °FClear.10 mph60%29.98 "Hg10 mi
3:30 am36 °FClear.12 mph65%29.98 "Hg10 mi
3:00 am36 °FClear.10 mph70%29.98 "Hg10 mi
2:30 am37 °FClear.14 mph60%29.95 "Hg10 mi
2:00 am36 °FClear.7 mph65%29.95 "Hg10 mi
1:30 am37 °FClear.8 mph60%29.92 "Hg10 mi
1:00 am37 °FClear.9 mph56%29.92 "Hg10 mi
12:30 am37 °FClear.10 mph56%29.92 "Hg10 mi
12:00 am37 °FPassing clouds.7 mph60%29.89 "HgN/A
11:30 pm
Fri, Feb 24
37 °FClear.12 mph60%29.89 "Hg10 mi
11:00 pm39 °FClear.15 mph56%29.86 "Hg10 mi
10:30 pm39 °FClear.15 mph56%29.86 "Hg10 mi
10:00 pm39 °FClear.14 mph56%29.86 "Hg10 mi
9:30 pm41 °FClear.17 mph49%29.83 "Hg10 mi
9:00 pm41 °FClear.15 mph57%29.83 "Hg10 mi
8:30 pm43 °FPassing clouds.9 mph46%29.80 "HgN/A
8:00 pm45 °FClear.9 mph39%29.77 "Hg10 mi
7:30 pm45 °FClear.7 mph37%29.74 "Hg10 mi
7:00 pm45 °FClear.10 mph39%29.74 "Hg10 mi
6:30 pm46 °FClear.9 mph34%29.71 "Hg10 mi
6:00 pm48 °FClear.15 mph32%29.68 "Hg10 mi
5:30 pm48 °FPassing clouds.9 mph32%29.65 "HgN/A
5:00 pm48 °FSunny.9 mph43%29.62 "Hg10 mi
4:30 pm50 °FSunny.13 mph40%29.62 "Hg10 mi
4:00 pm50 °FSunny.14 mph40%29.59 "Hg10 mi
3:30 pm52 °FSunny.17 mph38%29.59 "Hg10 mi
3:00 pm52 °FSunny.16 mph41%29.56 "Hg10 mi
2:30 pm54 °FSunny.15 mph35%29.56 "Hg10 mi
2:00 pm52 °FSunny.18 mph41%29.56 "Hg10 mi
1:30 pm52 °FSunny.17 mph41%29.56 "Hg10 mi
1:00 pm54 °FSunny.18 mph44%29.53 "Hg10 mi
12:30 pm54 °FSunny.20 mph44%29.53 "Hg10 mi
12:00 pm52 °FSunny.20 mph54%29.53 "Hg10 mi
11:30 am52 °FSunny.16 mph58%29.50 "Hg10 mi
11:00 am48 °FSunny.15 mph71%29.53 "Hg10 mi
10:30 am46 °FSunny.12 mph76%29.53 "Hg10 mi
10:00 am45 °FPassing clouds.15 mph87%29.53 "HgN/A
9:30 am43 °FPassing clouds.14 mph87%29.53 "HgN/A
9:00 am43 °FPassing clouds.13 mph87%29.53 "HgN/A
8:30 am43 °FPassing clouds.12 mph87%29.53 "HgN/A
8:00 am41 °FScattered clouds.14 mph87%29.53 "HgN/A
Weather by CustomWeather, © 2017

See weather overviewHow to use our weather pages